www.pogodaiklimat.ru

Погода и климат >> Архив погоды >> Россия >> Иркутская область >> Инга


АРХИВ ПОГОДЫ в Инге

Время (UTC), дата Ветер
(напр.,м/с)
 
Видим.   Явления Облачность Т
(С)
Тd
(С)
f
(%)
Тe
(С)
Тes
(С)
Комфортность P
(гПа)
Po
(гПа)
Тmin
(С)
Tmax
(С)
R
(мм)
R24
(мм)
S
(см)
18 11.04 штиль 0 н/о 3/3 600 м
[Cb cap]
-5.7 -7.2 89 -7 -7 1023.5 955.4
21 11.04 штиль 0 н/о ясно -6.7 -8.3 88 -8 -8 1023.8 955.4
00 12.04 штиль 0 50 км 3/0
[Ci fib]
-10.2 -12.2 85 -11 -9 1024.0 954.7 -10.7 0
03 12.04 Ю 2 50 км 10/3 600 м
[Cb cap Cs]
+1.7 -8.7 46 -1 +4 1019.1 953.0
06 12.04 З 2 50 км 10/6 600 м
[Cb cap Ci fib]
+3.9 -12.2 30 +2 +6 1017.6 952.1
09 12.04 ЮЗ 2 50 км в посл. час ливневой снег 10/9 600 м
[Cb cap Ci sp]
+0.9 -2.3 79 -2 -2 1019.6 953.4
12 12.04 штиль 0
{10}
50 км {ливн. осадки} 10/4 600 м
[Cb cap Ci fib]
-1.5 -3.7 85 -3 -3 1022.3 955.3 +4.7 1
15 12.04 штиль 0 н/о {ливн. осадки} 10/8 600 м
[Cb cap Ci fib]
-2.7 -4.0 91 -4 -4 1024.8 957.4
18 12.04 штиль 0 н/о {ливн. осадки} 10/10 600 м
[Cb cap]
-3.8 -5.0 91 -5 -5 1025.4 957.6
21 12.04 штиль 0 н/о слаб. ливневой снег 10/8 600 м
[Cb cap Ci fib]
-3.8 -5.0 91 -5 -5 1024.4 956.6
00 13.04 штиль 0 10 км слаб. ливневой снег 10/6 600 м
[Cb cap As op]
-3.0 -4.7 88 -4 -4 1022.4 955.0 -3.9 0.2 2
03 13.04 штиль 0 50 км 10/0
[Ac trans Ci sp]
+1.2 -3.0 74 0 +9 1019.1 952.9
06 13.04 В 2 50 км 8/1 1000 м
[Sc Ac trans Ci sp]
+12.8 -2.9 33 +12 +19 1011.2 948.2
09 13.04 ЮЗ 6 50 км 8/1 1000 м
[Cu hum Ci fib]
+15.8 -8.8 18 +15 +16 1008.0 945.7
12 13.04 ЮЗ 2
{12}
50 км 10/4 1000 м
[Sc Ac As Ci sp]
+12.4 -6.3 27 +12 +12 1008.7 945.7 +16.3
15 13.04 Ю 2 н/о 10/3 1000 м
[Sc Ac trans Ci sp]
+2.2 -5.3 58 -1 -1 1010.2 944.8
18 13.04 штиль 0 н/о 10/3 1000 м
[Sc Ac trans Ci fib]
-2.5 -5.8 78 -3 -3 1010.9 944.4
21 13.04 штиль 0 н/о 10/4 1000 м
[Sc Ac trans Cs]
-2.0 -5.5 77 -3 -3 1010.0 943.7
00 14.04 штиль 0 50 км 10/0
[Ci fib]
-1.0 -4.9 75 -2 -0 1010.3 944.2 -4.4 0
03 14.04 ЮЗ 4 50 км 8/0
[Cc]
+15.8 -11.5 14 +15 +20 1004.3 942.2
06 14.04 ЮЗ 4 50 км 10/6 600 м
[Cb cap Ac trans Ci sp]
+18.6 -8.7 15 +18 +20 1002.0 940.6
09 14.04 З 2 50 км 10/8 600 м
[Cb cap Ci sp]
+17.4 -5.8 20 +18 +19 1001.3 939.8
12 14.04 С 6 50 км 10/9 600 м
[Cb cap Ci fib]
+8.6 -0.6 52 +5 +5 1006.9 943.3 +19.8
15 14.04 С 2 н/о 10/9 600 м
[Cb cap Ac As]
+3.8 -2.4 64 +1 +1 1011.3 946.2
18 14.04 штиль 0 н/о {ливн. осадки} 10/10 600 м
[Cb cap]
+1.1 -0.9 86 0 0 1012.5 946.8
21 14.04 штиль 0 н/о слаб. ливневой снег 10/10 600 м
[Cb cap]
-1.1 -2.7 89 -2 -2 1012.6 946.4
00 15.04 С 2 50 км {ливн. осадки} 10/8 600 м
[Cb cap As op]
-1.2 -3.8 82 -5 -5 1009.6 943.5 -1.3 0.7 <0.5
03 15.04 С 2 10 км слаб. ливневой дождь 10/10 600 м
[Cb cap]
-1.3 -3.6 84 -5 -5 1007.9 942.0
06 15.04 СВ 2 2000 м ливневой снег 10/10 600 м
[Cb cap]
-0.6 -2.7 86 -4 -4 1009.3 943.4
09 15.04 З 2 2000 м слаб. ливневой снег 10/10 600 м
[Cb cap]
-0.7 -2.6 87 -4 -4 1011.8 945.7
12 15.04 штиль 0 10 км слаб. ливневой снег 10/10 600 м
[Cb cap]
-2.6 -4.9 84 -4 -4 1013.7 947.0 -0.6 4
15 15.04 штиль 0 н/о 10/8 600 м
[Cb cap Ac As]
-3.1 -5.1 86 -4 -4 1013.3 946.5
18 15.04 штиль 0 н/о 10/8 600 м
[Cb cap Ac As]
-3.3 -5.0 88 -4 -4 1011.1 944.4
21 15.04 штиль 0 н/о 10/10 600 м
[Cb cap]
-3.8 -5.3 89 -5 -5 1008.7 942.0
00 16.04 штиль 0 2000 м ливневой снег 10/10 600 м
[Cb cap]
-3.6 -5.1 89 -5 -5 1006.0 939.6 -3.9 0.7 3
03 16.04 штиль 0 2000 м ливневой снег 10/10 600 м
[Cb cap]
-2.8 -4.1 91 -4 -4 1003.8 937.8
06 16.04 штиль 0 2000 м ливневой снег 10/10 600 м
[Cb cap]
-2.7 -3.1 97 -4 -4 1004.0 937.8
09 16.04 СВ 2 2000 м ливневой снег 10/10 600 м
[Cb cap]
-1.9 -3.1 91 -6 -6 1006.2 940.1
12 16.04 штиль 0 2000 м ливневой снег 10/10 600 м
[Cb cap]
-2.6 -3.6 93 -4 -4 1010.0 943.5 -1.0 9
15 16.04 штиль 0 н/о слаб. ливневой снег 10/6 600 м
[Cb cap Cs]
-4.5 -5.4 93 -6 -6 1013.3 946.2
18 16.04 штиль 0 н/о {ливн. осадки} 10/3 600 м
[Cb cap Cs]
-5.8 -6.9 92 -7 -7 1015.4 947.8
21 16.04 штиль 0 н/о 10/0
[Cs]
-7.3 -8.6 90 -8 -8 1017.9 949.7
00 17.04 штиль 0 50 км 10/8 600 м
[Cb cap Ci fib]
-5.5 -6.9 90 -6 -6 1019.4 951.6 -8.0 0.2 11
03 17.04 Ю 2 50 км 6/1 600 м
[Cb cap Ac trans]
+1.1 -6.4 57 -2 +4 1018.5 952.4
06 17.04 штиль 0 50 км 8/8 600 м
[Cb cap]
+3.6 -11.0 33 +4 +7 1017.5 952.0
09 17.04 В 2 50 км 1/1 1000 м
[Cu hum]
+5.6 -9.2 34 +4 +9 1015.5 950.5
12 17.04 В 2 50 км ясно +3.9 -6.9 45 +2 +2 1015.0 949.7 +6.2
15 17.04 штиль 0 н/о ясно -4.1 -7.1 80 -5 -5 1016.6 949.4
18 17.04 штиль 0 н/о ясно -6.8 -8.0 91 -8 -8 1016.6 948.6
21 17.04 штиль 0 н/о 3/0
[Ci fib]
-9.0 -10.1 92 -10 -10 1015.2 946.8
00 18.04 штиль 0 50 км 4/0
[Ci fib]
-5.5 -7.3 87 -6 -4 1013.1 945.7 -10.0 2
03 18.04 СВ 2 50 км 3/0
[Ci sp]
+7.7 -4.9 40 +6 +15 опасность
простуды
1007.4 943.4
06 18.04 В 2 50 км 10/0
[Ac As Ci]
+14.2 -4.9 26 +14 +23 1001.4 939.2
09 18.04 ЮВ 4 50 км 10/1 1000 м
[Sc Ac As Ci sp]
+17.1 -8.8 16 +17 +18 994.2 933.0
12 18.04 В 2 50 км 10/0
[Ac trans Ci fib]
+15.6 -7.6 20 +16 +16 990.5 929.3 +18.3

 

Местоположение метеостанции Инга (Иркутская область, Россия): широта 52.97 долгота 101.90 высота над уровнем моря 543 м.

В архиве по умолчанию представлена погода в Инге за последнюю неделю. Архивные данные за месяц целиком и за предыдущие месяцы, начиная с января 2011 года, Вы можете получить, выбрав интересующий диапазон дат из раскрывающегося списка и нажав кнопку "Ввод!".


*Определитесь, кто Вы:
робот инопланетянин человек

Внимание! Время в таблицах - всемирное. Для получения местного времени необходимо прибавить поправку, которая равна 8 ч.

Смотрите также архив погоды в соседних городах и на ближайших метеорологических станциях:

Погода в Сараме (Иркутская область, Россия) (63 км)
Погода в Заларях (Иркутская область, Россия) (76 км)
Погода в Черемхово (Иркутская область, Россия) (77 км)
Погода в Зиме (Иркутская область, Россия) (107 км)
Погода в Дабадах (Иркутская область, Россия) (111 км)
Погода в Балаганске (Иркутская область, Россия) (136 км)
Погода в Ангарск (Иркутская область, Россия) (139 км)
Погода в Тунке (Бурятия, Россия) (144 км)
Погода в Кырене (Бурятия, Россия) (144 км)
Погода в Орлике (Бурятия, Россия) (150 км)

Пояснения к столбцам:

Ветер - указаны скорость ветра в м/с - средняя за 10 мин, порывы в срок и между сроками (в фигурных скобках) и направление, откуда дует ветер: С - северный, СВ - северо-восточный, В - восточный, ЮВ - юго-восточный, Ю - южный, ЮЗ - юго-западный, З - западный, СЗ - северо-западный.
Видимость - горизонтальная дальность видимости в метрах или километрах. При видимости от 1 до 10 км при отсутствии осадков обычно наблюдается дымка, при ухудшении видимости до 1 км и менее - туман. В сухую погоду видимость может ухудшаться дымом, пылью или мглою.
Явления - указаны атмосферные явления, наблюдавшиеся в срок или в последний час перед сроком; фигурными скобками обозначены явления, наблюдавшиеся между сроками (за 1-3 часа до срока); квадратными скобками обозначены град или гололедные отложения с указанием их диаметра в мм.
Облачность - указаны через наклонную черту общая и нижняя облачность в баллах и высота нижней границы облаков в метрах; квадратными скобками обозначены формы облаков: Ci - перистые, Cs - перисто-слоистые, Cc - перисто-кучевые, Ac - высококучевые, As - высокослоистые, Sc - слоисто-кучевые, Ns - слоисто-дождевые, Cu - кучевые, Cb - кучево-дождевые. Подробнее классификацию облаков см. в Атласе облаков (PDF).
T - Температура воздуха - температура, измеренная на высоте 2 м над землей.
Td - Температура точки росы - температура, при понижении до которой содержащийся в воздухе водяной пар достигнет насыщения.
f - Относительная влажность воздуха - влажноcть воздуха, измеренная на высоте 2 м над землей.
Te - Эффективная температура - температура, которую ощущает одетый по сезону человек в тени. Характеристика душности погоды. При расчете учитывается влияние влажности воздуха и скорости ветра на теплоощущения человека.
Tes - Эффективная температура на солнце - температура, которую ощущает человек, с поправкой на солнечный нагрев. Характеристика знойности погоды. Зависит от высоты солнца над горизонтом, облачности и скорости ветра. Ночью, в пасмурную погоду, а также при ветре 12 м/с и более поправка равна нулю.
P - Атмосферное давление - приведенное к уровню моря атмосферное давление.
Po - Атмосферное давление - измеренное на уровне метеостанции атмосферное давление.
Tmin - Минимальная температура - минимум температуры воздуха на высоте 2 м над землей.
Tmax - Максимальная температура - максимум температуры воздуха на высоте 2 м над землей.
R - Количество осадков - Количество выпавших осадков за период времени, мм. При наведении курсора мыши на число - период времени, за который выпало указанное количество осадков.
R24 - Количество осадков - Количество выпавших осадков за 24 часа, мм.
S - Снежный покров - Высота снежного покрова, см. При наведении курсора мыши на число - состояние снежного покрова и степень покрытия местности в баллах.